Location: Norton
(51.3000°N, 0.8167°E)
Time: 12:42:47
(UTC+00:00)

USA 281 - Pass Details

Date: 03 March 2021
Orbit: 1076 x 1083 km, 106.0° (Epoch: 03 April)

Event Time Altitude Azimuth Distance (km) Brightness Sun altitude
Exits shadow 21:34:29 46° 10° (N) 1,411 3.9 -35.0°
Drops below altitude 10° 21:39:22 10° 338° (NNW) 2,928 6.1 -35.6°
Sets 21:41:56 0° 335° (NNW) 3,888 7.0 -35.9°
